Theta_e
302 303 304 303 304 304 301 301 301 300 298 298 297 297 297 297 297 297 298 301 302 304 305 305 305 305 304 302 301 300 299 299 299 299 298 297 295 294 292 290 290 290
302 302 302 302 303 302 301 302 301 300 298 297 298 298 298 297 297 297 297 299 300 301 302 302 303 304 303 302 301 300 299 299 297 297 296 295 293 292 291 289 288 287
301 302 302 302 302 302 300 300 300 300 299 298 298 298 297 296 296 296 297 298 298 299 300 300 301 302 301 301 300 299 298 296 295 293 293 292 291 290 288 287 286 285
300 302 303 303 303 301 300 299 299 299 299 297 296 296 296 296 296 295 296 296 297 297 297 298 298 297 298 298 298 296 295 294 293 292 291 289 289 288 286 286 285 283
299 300 301 301 301 301 300 299 298 298 298 298 297 296 295 294 294 294 294 294 295 294 294 294 294 293 293 293 294 294 293 292 290 290 289 288 287 286 285 284 283 282
297 299 299 300 299 299 299 299 299 298 298 297 297 295 295 294 293 293 293 293 293 293 292 291 291 291 291 291 291 292 291 290 290 290 288 287 285 285 285 284 283 282
296 297 298 298 298 298 299 299 298 297 297 296 294 293 293 293 292 292 292 293 292 292 292 291 291 291 291 291 291 290 290 290 289 289 288 286 285 284 284 283 283 282
294 294 295 295 295 296 298 298 297 295 295 292 291 291 291 292 292 291 292 291 291 291 291 291 291 291 290 290 290 289 288 289 288 288 287 285 284 283 282 283 282 281
292 291 292 291 292 293 294 295 295 295 293 292 291 289 289 290 290 290 291 290 290 290 290 290 290 290 289 289 289 289 288 287 287 287 286 284 283 282 282 281 281 280
290 290 290 291 291 291 291 291 293 293 292 292 290 289 289 289 289 289 289 289 289 289 289 289 289 288 288 289 289 289 288 287 286 286 286 284 284 282 281 280 280 279
290 289 290 290 291 290 290 289 289 290 289 290 289 289 289 288 287 288 288 289 289 288 288 288 288 288 288 288 288 288 288 287 285 285 285 284 283 282 281 280 279 279
290 289 290 290 290 290 289 289 289 288 288 288 289 289 288 287 287 287 288 288 288 288 288 288 288 288 288 288 287 287 287 286 285 284 284 283 281 281 280 280 279 278
290 290 290 290 290 290 289 288 288 288 288 288 288 288 287 286 286 287 287 288 288 288 288 288 287 287 287 287 286 286 285 284 283 283 282 281 280 280 279 279 279 278
291 290 290 290 289 289 288 288 288 287 287 287 287 288 286 286 286 286 287 287 287 287 287 287 287 286 286 286 285 285 284 283 282 281 280 280 279 279 278 278 278 278
291 290 289 289 289 288 288 287 287 286 286 286 287 288 287 286 286 286 286 285 286 286 286 286 286 286 286 285 284 283 283 282 281 281 280 279 279 278 278 277 278 278
290 289 289 289 288 288 287 287 286 285 285 285 286 287 287 286 286 286 286 285 285 284 285 285 285 285 285 286 286 284 283 282 281 280 280 279 278 278 277 277 277 278
290 289 288 288 288 287 287 286 285 285 284 284 284 285 286 286 285 285 285 285 284 284 283 284 284 285 286 288 288 287 283 282 281 280 279 279 278 278 277 277 278 279
290 288 288 288 287 287 286 285 284 284 284 284 284 284 285 285 284 284 284 284 283 283 283 283 283 285 288 288 289 288 286 282 281 280 279 279 279 278 278 278 278 278
288 288 287 287 287 286 285 284 283 283 283 283 283 284 285 284 285 284 284 284 283 282 282 282 282 286 288 288 288 288 287 283 281 280 280 279 279 279 278 278 278 278
288 287 287 287 286 285 284 283 283 283 283 283 283 283 284 284 284 284 284 283 283 283 282 282 282 285 288 288 288 288 287 285 281 280 280 279 279 279 278 278 278 279
288 287 287 286 285 284 284 283 283 282 282 282 283 283 283 283 284 284 284 284 283 283 283 282 282 285 288 288 288 288 288 285 281 280 280 279 279 279 279 279 279 280
287 287 287 285 284 284 283 283 282 282 282 282 282 281 282 283 284 284 284 283 283 283 282 282 282 286 287 288 288 289 287 282 280 279 279 279 278 279 279 280 280 280
287 287 286 284 284 283 283 282 282 281 281 281 281 281 281 282 283 283 284 283 283 282 282 282 281 285 287 288 289 289 286 281 280 279 279 278 278 279 279 280 280 281
287 286 285 284 283 283 283 282 282 281 281 281 282 281 281 282 283 283 283 283 283 282 282 282 281 283 286 288 288 288 285 280 280 279 278 278 278 279 280 280 281 282
286 285 285 284 283 283 282 282 281 281 281 280 281 281 281 282 283 283 282 283 283 282 283 282 281 282 286 287 288 288 284 281 280 279 278 278 278 278 280 280 280 281
285 285 284 284 283 282 282 282 281 280 280 280 280 281 281 282 282 282 281 281 282 282 282 282 281 281 285 287 288 288 285 281 280 279 278 278 278 279 278 279 280 280
Wind_Speed
9 8 9 8 8 8 9 9 8 8 8 7 8 8 9 8 7 8 8 7 8 9 8 8 9 10 10 11 11 10 11 13 11 9 10 9 8 8 9 9 10 10
10 9 8 7 7 7 8 9 9 8 8 8 8 8 7 6 7 8 8 8 8 8 7 6 7 9 9 9 10 11 10 10 11 6 8 10 9 10 11 10 9 7
8 9 10 10 10 9 9 8 8 8 8 8 8 7 6 7 7 8 8 8 8 7 7 7 7 8 8 8 9 9 9 10 11 9 9 10 9 10 10 10 9 11
8 9 9 9 10 10 9 9 8 7 6 6 7 7 7 6 7 8 8 8 7 7 6 6 6 6 8 9 9 8 9 9 8 7 7 5 7 9 10 9 9 7
8 8 8 7 6 7 8 9 9 8 8 8 7 6 7 7 7 7 7 8 7 6 5 6 5 5 5 7 8 9 9 9 9 9 9 8 6 8 8 10 10 10
7 7 6 7 7 6 8 9 9 9 9 8 8 7 7 8 8 8 8 9 8 8 7 5 5 5 6 6 6 8 8 9 9 11 10 11 9 7 8 8 11 11
8 7 8 7 6 8 8 8 8 9 9 8 6 8 7 8 8 8 9 9 9 9 9 8 8 7 7 7 8 8 8 9 10 9 10 8 10 9 7 9 10 11
8 7 7 6 7 8 9 8 7 8 8 7 8 7 8 9 9 8 8 8 8 8 8 8 7 8 7 8 8 8 8 7 10 12 11 10 10 11 9 8 9 11
7 7 7 7 9 8 8 8 7 7 7 9 8 8 7 8 9 9 9 9 9 9 9 8 9 9 8 8 8 10 11 9 10 11 12 12 12 13 12 10 11 11
8 7 8 9 10 9 9 8 8 7 7 8 8 8 9 7 8 9 9 10 9 9 9 9 9 9 9 9 10 11 12 12 11 11 12 13 13 11 11 11 13 12
9 9 9 10 10 8 9 7 7 8 7 8 8 8 8 8 6 7 9 9 10 10 10 10 10 10 11 10 9 10 11 12 12 11 12 12 12 13 13 13 13 13
10 9 11 11 10 9 9 8 8 7 8 7 8 10 9 8 9 8 9 10 9 10 10 10 10 10 11 11 11 10 10 10 10 11 11 11 11 11 12 11 13 13
11 12 11 10 10 9 8 8 8 8 8 8 8 9 9 9 8 9 8 9 9 9 10 10 10 10 10 10 9 10 11 11 11 10 10 9 10 11 11 11 11 12
11 10 10 10 9 8 8 9 8 8 8 7 8 9 9 9 10 10 9 9 9 9 9 9 9 9 10 10 10 11 11 11 11 11 11 10 10 10 10 10 10 12
8 8 8 8 8 8 9 9 9 8 7 8 8 9 7 8 8 9 10 9 8 9 9 8 9 10 10 11 12 12 11 12 12 12 12 12 11 10 9 8 9 10
9 8 9 8 9 10 9 9 9 8 8 8 9 9 8 8 8 9 9 10 10 10 9 8 9 8 12 17 14 12 12 10 10 11 12 12 12 11 9 8 9 9
8 9 8 10 10 9 8 9 9 8 8 8 8 8 9 9 9 10 10 9 10 10 11 10 9 9 16 17 15 15 12 11 12 11 11 12 12 13 13 12 10 9
9 8 9 9 8 10 9 8 8 8 9 9 8 8 8 7 10 10 9 9 9 9 10 10 9 12 16 18 14 15 13 11 9 10 10 10 11 12 11 11 10 9
7 8 9 8 9 8 8 8 9 9 10 9 11 8 6 9 9 9 9 9 9 10 10 10 9 13 17 19 17 16 16 12 10 11 12 12 11 12 11 11 10 10
7 8 9 9 8 8 8 9 10 11 10 8 7 7 9 9 9 10 8 8 9 9 9 9 9 12 17 18 19 18 17 15 10 12 12 13 13 13 13 13 13 13
9 9 9 8 9 9 9 10 11 9 8 8 9 10 10 10 10 9 9 8 8 8 7 9 9 14 17 19 21 18 18 13 8 8 9 10 10 11 13 14 14 13
9 9 9 8 8 8 9 10 9 10 10 8 7 6 6 5 6 7 9 9 8 8 8 8 7 14 18 20 19 16 18 10 8 10 9 10 11 11 11 10 11 12
9 9 8 8 9 9 10 10 10 9 8 6 7 7 8 8 8 8 7 8 9 9 10 8 7 11 15 17 17 19 15 9 9 9 8 9 10 11 10 10 10 11
8 9 9 9 9 11 11 9 7 6 8 8 10 9 8 8 7 7 7 8 9 10 9 9 7 10 16 17 18 21 14 11 9 9 9 8 7 7 7 8 9 10
8 8 8 9 10 9 9 9 9 9 7 6 7 7 7 6 6 7 6 6 7 8 9 9 7 9 16 18 19 19 15 10 10 9 10 9 9 8 6 6 7 6
7 8 8 9 10 8 8 8 6 6 7 8 6 6 6 6 6 6 8 7 6 7 8 8 8 8 12 19 20 18 17 11 9 10 11 11 10 10 10 7 7 8
Wind_Direction
197 197 200 199 202 194 184 187 186 189 191 189 194 198 198 202 186 192 201 199 195 196 196 193 188 191 185 181 185 184 186 191 188 181 172 164 165 167 171 168 167 167
204 201 196 191 195 190 187 184 185 188 191 192 197 196 196 182 187 189 195 201 198 196 189 186 188 188 185 181 182 183 182 180 183 176 167 168 172 170 169 166 167 161
212 213 205 197 192 186 181 183 182 188 189 196 195 191 184 180 180 188 194 197 197 196 190 185 183 183 179 179 179 179 176 172 175 173 162 171 167 170 167 159 158 169
215 219 221 215 200 186 174 175 181 181 185 184 193 189 178 179 178 183 190 191 192 194 191 184 187 183 179 175 171 175 170 166 161 150 152 152 171 158 157 152 150 149
210 218 223 222 222 197 178 179 180 181 186 190 185 178 170 168 176 178 181 188 187 188 184 186 175 172 169 164 165 164 165 158 157 155 154 159 166 158 156 149 153 151
215 216 222 222 208 204 200 191 183 180 185 187 189 176 179 173 176 178 179 183 185 181 182 176 172 170 164 160 156 161 158 154 161 156 156 157 161 162 156 157 153 152
208 210 220 225 222 207 204 203 189 183 184 184 168 185 172 176 179 180 180 181 179 182 181 179 177 173 172 163 164 163 166 160 156 157 156 156 152 158 162 157 158 151
205 207 210 216 223 215 207 202 196 189 180 164 179 180 175 179 181 179 178 174 175 180 181 179 179 175 171 167 164 162 163 166 165 161 160 160 162 162 166 165 154 148
202 206 204 212 219 219 213 199 197 192 180 176 177 173 185 180 177 174 173 170 173 176 174 175 176 173 172 170 170 167 165 171 173 168 165 165 170 170 168 160 153 153
204 203 204 209 215 216 216 205 194 193 187 185 178 171 180 184 174 169 166 169 171 173 176 174 172 173 175 182 179 177 174 174 175 175 171 170 168 166 166 164 160 154
207 201 207 209 214 211 215 206 201 193 191 189 178 179 180 171 172 166 167 171 174 177 179 180 179 175 178 182 183 184 181 175 175 175 173 172 170 170 171 168 164 160
208 206 209 208 208 210 208 203 199 195 193 195 184 182 179 178 170 174 175 180 182 185 185 186 182 181 184 184 183 180 179 177 176 177 175 170 169 172 172 172 165 161
208 211 208 207 206 205 200 200 201 198 193 194 189 184 180 178 178 177 186 184 190 187 188 185 184 184 185 183 179 178 179 176 175 176 173 168 171 172 174 173 168 162
211 208 207 207 203 199 198 200 199 200 198 193 188 189 186 182 179 182 185 189 192 190 190 185 183 184 185 183 181 180 178 178 174 174 170 167 166 172 173 171 169 169
203 204 204 203 199 197 198 199 199 199 196 192 194 195 189 187 181 181 182 189 189 189 188 185 185 188 187 184 182 185 181 176 175 174 172 166 165 167 169 166 167 169
199 197 198 196 198 199 199 195 195 196 193 196 197 194 188 184 183 186 188 188 186 190 188 186 193 193 193 189 187 183 180 176 172 172 170 168 163 162 164 167 170 171
198 202 189 198 200 195 194 192 194 191 195 197 196 194 189 184 181 188 192 189 189 188 189 193 195 197 197 191 183 181 177 173 173 172 172 168 167 164 166 170 173 171
204 193 195 202 191 198 191 192 187 190 195 195 194 195 193 180 188 192 189 188 189 190 193 194 197 195 190 192 180 178 175 173 167 166 168 170 170 169 167 167 166 160
197 195 200 198 199 191 187 183 189 193 196 193 198 194 182 188 192 185 191 189 189 191 196 195 198 194 194 191 184 176 173 164 174 171 169 172 172 170 166 163 164 162
197 196 201 202 190 187 185 189 192 200 198 194 187 184 192 195 191 190 188 192 192 193 197 197 197 194 191 189 188 185 174 172 175 175 177 172 171 171 168 170 168 166
201 200 203 196 190 188 188 195 197 197 192 192 189 190 191 193 190 189 193 191 195 196 198 200 203 193 191 192 192 183 174 167 167 170 174 172 172 173 174 172 172 172
199 202 203 193 188 188 192 199 197 194 194 190 185 190 195 193 203 194 190 191 192 193 195 202 199 194 193 192 187 175 168 161 164 173 176 175 173 175 177 178 173 167
200 199 197 189 187 189 197 198 194 195 194 176 181 188 188 193 196 191 186 184 187 190 192 196 191 190 189 189 184 169 166 171 167 171 175 179 181 174 177 178 178 171
198 194 194 189 187 196 197 197 192 193 189 180 185 184 191 194 187 189 192 190 188 193 191 189 190 190 190 192 189 179 169 173 172 170 170 172 172 177 174 175 177 171
193 192 190 186 192 196 189 189 190 191 182 175 187 184 191 181 187 189 193 194 197 195 191 187 180 190 191 193 192 181 167 174 170 172 168 173 170 170 170 170 174 166
188 188 188 185 190 188 188 190 173 160 171 177 184 179 178 179 184 188 186 193 186 186 190 186 180 190 193 194 194 181 168 169 175 171 178 173 172 170 164 173 175 175